St. George, UT

10:16 AM MDT on June 25, 2017 (GMT -0600)
Saint George Municipal

Weather History for KSGU - August, 2014

Change the Weather History Date:

Friday, August 1, 2014

  Actual Average Record
Temperature  
Mean Temperature 88 °F -  
Max Temperature 102 °F 102 °F 111 °F (1969)
Min Temperature 75 °F 69 °F 56 °F (1932)
Cooling Degree Days 24    
Growing Degree Days 38 (Base 50)    
Moisture  
Dew Point 54 °F    
Average Humidity 34    
Maximum Humidity 55    
Minimum Humidity 18    
Precipitation  
Precipitation 0.08 in - - ()
Sea Level Pressure  
Sea Level Pressure 30.01 in    
Wind  
Wind Speed 8 mph (NE)    
Max Wind Speed 36 mph    
Max Gust Speed 40 mph    
Visibility 10 miles    
Events Thunderstorm    
Averages and records for this station are not official NWS values.
T = Trace of Precipitation, MM = Missing Value Source: NWS Daily Summary

Daily Weather History Graph

Daily Weather History Graph

Search for Another Location

Airport or City:

Trip Planner

Search our weather history database for the weather conditions in past years. The results will help you decide how hot, cold, wet, or windy it might be!

Date:

Astronomy

Aug. 01, 2014 Rise Set
Actual Time 6:39 AM MDT 8:40 PM MDT
Civil Twilight 6:10 AM MDT 9:09 PM MDT
Nautical Twilight 5:35 AM MDT 9:44 PM MDT
Astronomical Twilight 4:57 AM MDT 10:22 PM MDT
Moon 11:58 AM MDT (8/1) 11:37 PM MDT (8/1)
Length of Visible Light 14h 59m
Length of Day
14h 01m
Waxing Crescent, 28% of the Moon is Illuminated
Aug 1
Waxing Crescent
Aug 3
First Quarter
Aug 10
Full
Aug 17
Last Quarter
Aug 25
New

Hourly Weather History & Observations

Time (MDT) Temp. Heat Index Dew Point Humidity Pressure Visibility Wind Dir Wind Speed Gust Speed Precip Events Conditions
12:15 AM 82.4 °F - 50.0 °F 32% 30.02 in 10.0 mi ESE 17.3 mph 24.2 mph N/A   Clear
12:35 AM 82.4 °F - 51.8 °F 35% 30.04 in 10.0 mi SW 3.5 mph - N/A   Clear
12:55 AM 82.4 °F - 51.8 °F 35% 30.04 in 10.0 mi West 4.6 mph - N/A   Partly Cloudy
1:15 AM 82.4 °F - 51.8 °F 35% 30.04 in 10.0 mi North 5.8 mph - N/A   Clear
1:35 AM 80.6 °F - 51.8 °F 37% 30.04 in 10.0 mi North 6.9 mph - N/A   Clear
2:15 AM 80.6 °F - 51.8 °F 37% 30.05 in 10.0 mi NE 8.1 mph - N/A   Clear
2:35 AM 80.6 °F - 51.8 °F 37% 30.04 in 10.0 mi East 12.7 mph - N/A   Clear
2:55 AM 80.6 °F - 51.8 °F 37% 30.05 in 10.0 mi East 15.0 mph - N/A   Clear
3:15 AM 80.6 °F - 51.8 °F 37% 30.04 in 10.0 mi East 13.8 mph 18.4 mph N/A   Clear
3:35 AM 78.8 °F - 51.8 °F 39% 30.04 in 10.0 mi ESE 11.5 mph - N/A   Clear
3:55 AM 78.8 °F - 51.8 °F 39% 30.04 in 10.0 mi East 8.1 mph - N/A   Clear
4:15 AM 78.8 °F - 51.8 °F 39% 30.04 in 10.0 mi ESE 8.1 mph - N/A   Clear
4:35 AM 77.0 °F - 51.8 °F 41% 30.05 in 10.0 mi ENE 4.6 mph - N/A   Clear
4:55 AM 77.0 °F - 51.8 °F 41% 30.05 in 10.0 mi Calm Calm - N/A   Clear
5:15 AM 78.8 °F - 51.8 °F 39% 30.05 in 10.0 mi ENE 9.2 mph - N/A   Clear
5:35 AM 77.0 °F - 51.8 °F 41% 30.05 in 10.0 mi NNE 5.8 mph - N/A   Clear
5:55 AM 75.2 °F - 53.6 °F 47% 30.05 in 10.0 mi NNE 4.6 mph - N/A   Clear
6:15 AM 75.2 °F - 51.8 °F 44% 30.06 in 10.0 mi Calm Calm - N/A   Clear
6:35 AM 75.2 °F - 51.8 °F 44% 30.06 in 10.0 mi East 5.8 mph - N/A   Clear
6:55 AM 75.2 °F - 51.8 °F 44% 30.07 in 10.0 mi Calm Calm - N/A   Clear
7:15 AM 75.2 °F - 53.6 °F 47% 30.08 in 10.0 mi North 4.6 mph - N/A   Clear
7:35 AM 77.0 °F - 53.6 °F 44% 30.08 in 10.0 mi NE 4.6 mph - N/A   Clear
7:55 AM 77.0 °F - 51.8 °F 41% 30.08 in 10.0 mi ENE 4.6 mph - N/A   Clear
8:15 AM 78.8 °F - 51.8 °F 39% 30.09 in 10.0 mi Calm Calm - N/A   Clear
8:35 AM 78.8 °F - 51.8 °F 39% 30.09 in 10.0 mi Calm Calm - N/A   Clear
8:55 AM 80.6 °F - 51.8 °F 37% 30.09 in 10.0 mi Calm Calm - N/A   Clear
9:15 AM 80.6 °F - 51.8 °F 37% 30.09 in 10.0 mi Calm Calm - N/A   Clear
9:35 AM 82.4 °F - 51.8 °F 35% 30.09 in 10.0 mi NW 4.6 mph - N/A   Clear
9:55 AM 84.2 °F - 51.8 °F 33% 30.09 in 10.0 mi NNW 4.6 mph - N/A   Clear
10:15 AM 84.2 °F - 51.8 °F 33% 30.08 in 4.0 mi Calm Calm - N/A   Clear
10:35 AM 84.2 °F 82.8 °F 53.6 °F 35% 30.08 in 10.0 mi NNW 5.8 mph - N/A   Clear
10:55 AM 86.0 °F - 51.8 °F 31% 30.08 in 10.0 mi NNE 4.6 mph - N/A   Clear
11:15 AM 87.8 °F - 51.8 °F 29% 30.08 in 10.0 mi West 5.8 mph - N/A   Clear
11:35 AM 89.6 °F - 51.8 °F 27% 30.07 in 10.0 mi Calm Calm - N/A   Clear
12:15 PM 91.4 °F - 51.8 °F 26% 30.06 in 10.0 mi SW 3.5 mph - N/A   Clear
12:35 PM 91.4 °F - 51.8 °F 26% 30.06 in 10.0 mi West 6.9 mph - N/A   Clear
12:55 PM 93.2 °F - 51.8 °F 24% 30.05 in 10.0 mi West 5.8 mph - N/A   Clear
1:15 PM 93.2 °F 90.8 °F 53.6 °F 26% 30.04 in 10.0 mi WSW 6.9 mph - N/A   Clear
1:35 PM 93.2 °F 90.8 °F 53.6 °F 26% 30.03 in 10.0 mi West 10.4 mph - N/A   Clear
1:55 PM 95.0 °F - 51.8 °F 23% 30.02 in 10.0 mi WNW 5.8 mph - N/A   Clear
2:15 PM 96.8 °F - 51.8 °F 22% 30.00 in 10.0 mi West 9.2 mph - N/A   Clear
2:35 PM 96.8 °F - 51.8 °F 22% 29.99 in 10.0 mi West 8.1 mph - N/A   Clear
2:55 PM 98.6 °F 96.4 °F 53.6 °F 22% 29.98 in 10.0 mi WSW 5.8 mph - N/A   Clear
3:15 PM 98.6 °F - 51.8 °F 21% 29.97 in 10.0 mi SW 8.1 mph - N/A   Clear
4:15 PM 100.4 °F - 51.8 °F 20% 29.95 in 10.0 mi WSW 12.7 mph 18.4 mph N/A   Clear
4:35 PM 100.4 °F - 51.8 °F 20% 29.94 in 10.0 mi West 12.7 mph 19.6 mph N/A   Clear
4:55 PM 100.4 °F 98.4 °F 53.6 °F 21% 29.94 in 10.0 mi North 16.1 mph 23.0 mph N/A   Clear
5:15 PM 100.4 °F 98.4 °F 53.6 °F 21% 29.93 in 10.0 mi North 11.5 mph 23.0 mph N/A   Clear
5:35 PM 100.4 °F 98.4 °F 53.6 °F 21% 29.93 in 10.0 mi North 9.2 mph - N/A   Clear
5:55 PM 100.4 °F - 51.8 °F 20% 29.93 in 10.0 mi NNE 5.8 mph - N/A   Partly Cloudy
6:15 PM 102.2 °F - 51.8 °F 18% 29.92 in 10.0 mi NE 4.6 mph - N/A   Clear
6:35 PM - - - N/A% 29.93 in 10.0 mi North 35.7 mph 40.3 mph N/A   Mostly Cloudy
6:55 PM 84.2 °F 83.8 °F 59.0 °F 42% 29.92 in 5.0 mi ENE 13.8 mph 24.2 mph 0.08 in   Mostly Cloudy
7:15 PM 89.6 °F 89.5 °F 60.8 °F 38% 29.92 in 10.0 mi East 8.1 mph - N/A Thunderstorm Partly Cloudy
7:35 PM 95.0 °F 94.4 °F 59.0 °F 30% 29.92 in 10.0 mi SE 4.6 mph - N/A   Clear
7:55 PM 95.0 °F 92.7 °F 53.6 °F 25% 29.92 in 10.0 mi Calm Calm - N/A   Clear
8:15 PM 93.2 °F 94.1 °F 62.6 °F 36% 29.93 in 10.0 mi Calm Calm - N/A   Clear
8:35 PM 91.4 °F 93.2 °F 64.4 °F 41% 29.93 in 10.0 mi Calm Calm - N/A   Clear
8:55 PM 91.4 °F 94.0 °F 66.2 °F 43% 29.93 in 10.0 mi Calm Calm - N/A   Clear
9:15 PM 89.6 °F 92.2 °F 66.2 °F 46% 29.93 in 10.0 mi Calm Calm - N/A   Partly Cloudy
9:35 PM 89.6 °F 91.1 °F 64.4 °F 43% 29.94 in 10.0 mi NNE 3.5 mph - N/A   Partly Cloudy
9:55 PM 87.8 °F 92.6 °F 69.8 °F 55% 29.95 in 10.0 mi ESE 4.6 mph - N/A   Clear
10:15 PM 84.2 °F 83.8 °F 59.0 °F 42% 29.95 in 10.0 mi SE 9.2 mph - N/A   Clear
10:35 PM 84.2 °F 83.5 °F 57.2 °F 40% 29.96 in 10.0 mi SSE 10.4 mph - N/A   Clear
10:55 PM 82.4 °F 82.0 °F 57.2 °F 42% 29.97 in 10.0 mi ESE 10.4 mph - N/A   Clear
11:35 PM 84.2 °F 82.8 °F 53.6 °F 35% 29.97 in 10.0 mi SE 9.2 mph - N/A   Clear
11:55 PM 82.4 °F 81.7 °F 55.4 °F 39% 29.97 in 10.0 mi SE 12.7 mph - N/A   Clear